OPS 4682 DEB, 17093

Orbit data source: Space-Track

OPS 4682 DEB, 17093 is space debris in LEO originally from a launch on Sat, 03 Apr 1965 UTC launched from the Air Force Western Test Range (AFWTR). Debris objects in space refer to the collection of defunct objects orbiting the Earth. Examples of debris include non-operational satellites, rocket bodies, and fragments generated from explosions, collisions, or faulty payload assembly.

Loading next visibility...
Identifier
17093, 1965-027U
Orbit
LEO
Country
Flag of USUS
Related business
Manufacturer
Unknown
Mission
Spacecraft
Bus & Motor
Unknown
Mass
Unknown
Launch date (UTC)
1965-04-03 (61 years ago)
Launch vehicle
Unknown
Launch site
Air Force Western Test Range (AFWTR)
Object type
Payload
Rocket body
Debris
Shape & HBR
Unknown shape, 0.1 m
Radar Cross Section
Small (<0.1 m²)

Expand to show TLE details & history
Last TLE update: 1 week ago

TLE from 1 week ago
0 OPS 4682 DEB
1 17093U 65027U   25284.68703221 -.00000108  00000-0 -39465-3 0  9991
2 17093  90.2433   3.0659 0023678 321.9098 191.5399 12.98046716914739
Epoch: 2025-10-11T16:29Z
TLE epoch observation values (Epoch: 2025-10-11T16:29:19.582Z)
Latitude
26.63636°
Longitude
-84.65922°
Altitude
1,290.74 km
Speed
7.205 km/s
True Right ascension
12h 12m 44s
True Declination
26° 30' 30"
Sunlit
Object was in daylight at epoch
Visualization orbit readout
Latitude
Unknown
Longitude
Unknown
Altitude
Unknown
Speed
Unknown
Apparent Right ascension
Unknown
Apparent Declination
Unknown
Sunlit
N/A
Visualization observer readout
Local Sidereal Time
12:45:51
Azimuth
Unknown
Elevation
Unknown
Doppler factor
Unknown
Orbital elements
Apogee altitude
1,284.981 km
Perigee altitude
1,248.777 km
Semi-major axis
7,645.016 km
Eccentricity
0.00237
Inclination
90.2433°
RAAN
3.0659°
Arg. of periapsis
321.9098°
True anomaly
191.48578°
Mean anomaly
191.5399°
Eccentric anomaly
191.51282°
Mean motion
3.24695 °/min
Orbital period
110.87 mins
BSTAR
-0.00039465
Loading maneuver chart data...
Computing Atmospheric mass density...
Loading historical data...
Loading historical data...
Loading historical data...
Loading historical data...
Loading historical data...
Loading historical data...
Loading historical data...

Documentation

Showing up to 5 results
|